GW1241 Weather Reports


Display with metric or nautical units.
time (UTC)temp
F
wind
direction
speed
MPH
gust
MPH
rain 1hr
in
rain 24hr
in
rain mn
in
humidity
%
barometer
mb
20260510192521 82 296 2.0 3.0 0.00 0.00 0.00 46 1017.4
20260510191536 81 252 1.0 3.0 0.00 0.00 0.00 44 1017.3
20260510190532 81 220 2.0 7.0 0.00 0.00 0.00 47 1017.3
20260510185547 80 192 2.0 5.0 0.00 0.00 0.00 49 1017.6
20260510184522 79 189 2.0 4.0 0.00 0.00 0.00 46 1017.7
20260510183517 81 254 1.0 3.0 0.00 0.00 0.00 50 1017.7
20260510182532 80 253 2.0 2.0 0.00 0.00 0.00 53 1017.8
20260510181527 79 189 2.0 3.0 0.00 0.00 0.00 56 1017.9
20260510180522 80 292 1.0 2.0 0.00 0.00 0.00 60 1018.0
20260510175517 78 152 1.0 3.0 0.00 0.00 0.00 61 1018.1
20260510174552 77 269 2.0 3.0 0.00 0.00 0.00 67 1018.3
20260510173528 79 204 2.0 4.0 0.00 0.00 0.00 66 1018.4
20260510172542 78 204 2.0 4.0 0.00 0.00 0.00 70 1018.5
20260510171517 76 197 2.0 4.0 0.00 0.00 0.00 75 1018.5
20260510170533 75 286 2.0 4.0 0.00 0.00 0.00 74 1018.4
20260510165528 76 167 2.0 5.0 0.00 0.00 0.00 75 1018.5
20260510164542 75 249 1.0 3.0 0.00 0.00 0.00 77 1018.5
20260510163538 73 128 2.0 4.0 0.00 0.00 0.00 80 1018.5
20260510162533 73 24 1.0 3.0 0.00 0.00 0.00 82 1018.6
20260510161528 71 18 2.0 3.0 0.00 0.00 0.00 85 1018.8
20260510160523 71 29 1.0 2.0 0.00 0.00 0.00 85 1018.7
20260510155518 70 129 1.0 4.0 0.00 0.00 0.00 87 1018.6
20260510154533 70 139 2.0 5.0 0.00 0.00 0.00 89 1018.4
20260510153528 67 167 1.0 3.0 0.00 0.00 0.00 94 1018.4
20260510152523 66 187 1.0 3.0 0.00 0.00 0.00 99 1018.3
20260510151518 65 124 1.0 5.0 0.00 0.00 0.00 99 1018.4
20260510150553 64 183 2.0 5.0 0.00 0.00 0.00 99 1018.4
20260510145529 65 187 1.0 6.0 0.00 0.00 0.00 99 1018.3
20260510144543 64 177 2.0 5.0 0.00 0.00 0.00 99 1018.2
20260510143539 64 99 1.0 3.0 0.00 0.00 0.00 99 1018.2
20260510142554 63 175 3.0 5.0 0.00 0.00 0.00 99 1018.3
20260510141528 62 185 4.0 6.0 0.00 0.00 0.00 99 1018.3
20260510140524 62 166 1.0 5.0 0.00 0.00 0.00 99 1018.3
20260510135518 62 158 2.0 4.0 0.00 0.00 0.00 99 1018.4
20260510134533 62 119 2.0 3.0 0.00 0.00 0.00 99 1018.2
20260510133528 61 139 1.0 2.0 0.00 0.00 0.00 99 1018.1
20260510132523 61 164 2.0 4.0 0.00 0.00 0.00 99 1018.0
20260510131518 61 0.0 1.0 0.00 0.00 0.00 99 1018.1
20260510130534 61 153 1.0 2.0 0.00 0.00 0.00 99 1018.1
20260510125529 60 146 1.0 3.0 0.00 0.00 0.00 99 1018.0
20260510124523 61 61 1.0 2.0 0.00 0.00 0.00 99 1017.9
20260510123538 60 158 1.0 3.0 0.00 0.00 0.00 99 1017.5
20260510122534 60 176 2.0 5.0 0.00 0.00 0.00 99 1017.3
20260510121548 60 164 2.0 5.0 0.00 0.00 0.00 99 1017.3
20260510120524 60 176 2.0 5.0 0.00 0.00 0.00 99 1017.1
20260510115519 59 178 3.0 5.0 0.00 0.00 0.00 99 1017.0
20260510114554 59 182 3.0 5.0 0.00 0.00 0.00 99 1016.8
20260510113549 59 178 2.0 4.0 0.00 0.00 0.00 99 1016.7
20260510112524 59 180 2.0 3.0 0.00 0.00 0.00 99 1016.5
20260510111519 59 143 0.0 2.0 0.00 0.00 0.00 99 1016.4
20260510110535 58 169 2.0 4.0 0.00 0.00 0.00 99 1016.3
20260510105530 58 174 1.0 3.0 0.00 0.00 0.00 99 1016.3
20260510104545 58 178 2.0 3.0 0.00 0.00 0.00 99 1016.0
20260510103520 58 205 0.0 2.0 0.00 0.00 0.00 99 1015.8
20260510102535 57 80 1.0 2.0 0.00 0.00 0.00 99 1015.7
20260510101530 57 0.0 0.0 0.00 0.00 0.00 99 1015.5
20260510100535 57 77 0.0 1.0 0.00 0.00 0.00 99 1015.5
20260510095530 58 149 1.0 2.0 0.00 0.00 0.00 99 1015.3
20260510094525 57 158 0.0 2.0 0.00 0.00 0.00 99 1015.3
20260510093541 57 94 0.0 1.0 0.00 0.00 0.00 99 1015.3
20260510092555 58 72 1.0 2.0 0.00 0.00 0.00 99 1015.2
20260510091551 58 61 1.0 2.0 0.00 0.00 0.00 99 1015.1
20260510090525 58 53 1.0 2.0 0.00 0.00 0.00 99 1015.3
20260510085541 58 0.0 0.0 0.00 0.00 0.00 99 1015.3
20260510084536 58 126 0.0 1.0 0.00 0.00 0.00 99 1015.3
20260510083531 58 62 0.0 1.0 0.00 0.00 0.00 99 1015.0
20260510082544 58 28 1.0 2.0 0.00 0.00 0.00 99 1014.9
20260510081540 59 52 1.0 2.0 0.00 0.00 0.00 99 1014.6
20260510080535 59 26 0.0 2.0 0.00 0.00 0.00 99 1014.6
20260510075529 59 0.0 1.0 0.00 0.00 0.00 99 1014.5
20260510074525 59 31 2.0 2.0 0.00 0.00 0.00 99 1014.5
20260510073534 59 36 1.0 2.0 0.00 0.00 0.00 99 1014.4
20260510072529 59 67 1.0 2.0 0.00 0.00 0.00 99 1014.4
20260510071544 60 0.0 1.0 0.00 0.00 0.00 99 1014.6
20260510070519 60 0.0 0.0 0.00 0.00 0.00 99 1014.5
20260510065534 60 0.0 0.0 0.00 0.00 0.00 98 1014.6
20260510064530 61 0.0 1.0 0.00 0.00 0.00 98 1014.6
20260510063535 61 53 0.0 2.0 0.00 0.00 0.00 98 1014.4
20260510062520 61 122 1.0 2.0 0.00 0.00 0.00 98 1014.6
20260510061535 61 84 0.0 1.0 0.00 0.00 0.00 98 1014.5
20260510060550 61 0.0 0.0 0.00 0.00 0.00 98 1014.6
20260510055525 61 82 1.0 2.0 0.00 0.00 0.00 97 1014.6
20260510054540 61 0.0 1.0 0.00 0.00 0.00 97 1014.6
20260510053536 62 0.0 0.0 0.00 0.00 0.00 97 1014.6
20260510052530 62 42 0.0 1.0 0.00 0.00 0.00 96 1014.5
20260510051525 62 71 1.0 2.0 0.00 0.00 0.00 96 1014.5
20260510050521 63 15 0.0 1.0 0.00 0.00 0.00 96 1014.5
20260510045516 63 62 0.0 1.0 0.00 0.00 0.00 95 1014.6
20260510044532 63 51 0.0 1.0 0.00 0.00 0.00 94 1014.6
20260510043547 63 0.0 1.0 0.00 0.00 0.00 94 1014.7
20260510042522 64 30 0.0 1.0 0.00 0.00 0.00 92 1014.9
20260510041517 65 177 2.0 3.0 0.00 0.00 0.00 91 1015.0
20260510040533 65 135 2.0 3.0 0.00 0.00 0.00 91 1014.9
20260510035528 65 180 2.0 3.0 0.00 0.00 0.00 91 1015.0
20260510034523 65 148 2.0 4.0 0.00 0.00 0.00 90 1015.0
20260510033518 65 155 1.0 3.0 0.00 0.00 0.00 90 1014.9
20260510032533 65 175 2.0 4.0 0.00 0.00 0.00 90 1014.9
20260510031529 66 164 2.0 4.0 0.00 0.00 0.00 90 1014.9
20260510030524 66 161 1.0 3.0 0.00 0.00 0.00 89 1014.7
20260510025519 66 182 3.0 4.0 0.00 0.00 0.00 89 1014.7
20260510024535 66 167 2.0 4.0 0.00 0.00 0.00 88 1014.5
20260510023535 66 183 2.0 4.0 0.00 0.00 0.00 88 1014.5
20260510022545 67 161 2.0 4.0 0.00 0.00 0.00 87 1014.1
20260510021520 67 188 2.0 4.0 0.00 0.00 0.00 85 1014.0
20260510020557 67 179 2.0 4.0 0.00 0.00 0.00 85 1013.8
20260510015531 68 182 2.0 4.0 0.00 0.00 0.00 84 1013.5
20260510014611 68 173 1.0 3.0 0.00 0.00 0.00 84 1013.2
20260510013521 68 151 1.0 2.0 0.00 0.00 0.00 84 1013.2
20260510012516 69 155 1.0 2.0 0.00 0.00 0.00 82 1012.9
20260510011551 69 97 0.0 2.0 0.00 0.00 0.00 81 1012.8
20260510010526 70 194 1.0 3.0 0.00 0.00 0.00 79 1012.6
20260510005522 69 195 1.0 3.0 0.00 0.00 0.00 81 1012.5
20260510004518 69 0.0 0.0 0.00 0.00 0.00 82 1012.3
20260510003532 70 0.0 0.0 0.00 0.00 0.00 80 1012.2
20260510002527 71 193 0.0 2.0 0.00 0.00 0.00 77 1012.0
20260510001523 71 206 1.0 2.0 0.00 0.00 0.00 78 1012.1
20260510000518 72 0.0 0.0 0.00 0.00 0.00 75 1012.0
20260509235554 72 0.0 0.0 0.00 0.00 0.00 75 1011.9
20260509234529 72 0.0 0.0 0.00 0.00 0.00 73 1011.8
20260509233524 72 0.0 0.0 0.00 0.00 0.00 71 1011.7
20260509232539 73 0.0 1.0 0.00 0.00 0.00 70 1011.8
20260509231534 73 0.0 0.0 0.00 0.00 0.00 68 1011.9
20260509230529 73 0.0 0.0 0.00 0.00 0.00 66 1011.8
20260509225525 74 88 0.0 1.0 0.00 0.00 0.00 64 1011.8
20260509224519 74 54 0.0 2.0 0.00 0.00 0.00 63 1011.6
20260509223535 74 49 0.0 2.0 0.00 0.00 0.00 64 1011.5
20260509222530 75 10 0.0 2.0 0.00 0.00 0.00 63 1011.6
20260509221525 75 17 1.0 2.0 0.00 0.00 0.00 62 1011.5
20260509220540 75 35 1.0 2.0 0.00 0.00 0.00 60 1011.6
20260509215515 76 1 1.0 2.0 0.00 0.00 0.00 61 1011.5
20260509214531 76 82 0.0 2.0 0.00 0.00 0.00 60 1011.3
20260509213526 76 58 0.0 2.0 0.00 0.00 0.00 60 1011.4
20260509212521 75 27 0.0 2.0 0.00 0.00 0.00 63 1011.4
20260509211516 76 134 0.0 2.0 0.00 0.00 0.00 63 1011.5
20260509210531 76 99 0.0 2.0 0.00 0.00 0.00 64 1011.5
20260509205527 76 52 1.0 2.0 0.00 0.00 0.00 62 1011.5
20260509204541 76 240 0.0 2.0 0.00 0.00 0.00 64 1011.5
20260509203537 76 21 1.0 2.0 0.00 0.00 0.00 64 1011.8
20260509202552 76 14 0.0 2.0 0.00 0.00 0.00 63 1011.8
20260509201529 76 72 2.0 4.0 0.00 0.00 0.00 61 1012.0
20260509200522 76 269 0.0 3.0 0.00 0.00 0.00 64 1012.0
20260509195518 76 66 1.0 2.0 0.00 0.00 0.00 63 1012.0
20260509194533 76 212 1.0 2.0 0.00 0.00 0.00 63 1011.9
20260509193528 77 220 1.0 3.0 0.00 0.00 0.00 63 1011.9